Weather observations for the past three days for
Greenville Downtown Airport
Imperial (Metric)
Date Time (edt) Wind (mph) Vis. (mi.) Weather Sky Cond. Temperature (ºF) Relative Humidity Wind Chill (°F) Heat Index (°F) Pressure Precipitation (in)
Air Dwpt 6 hour altimeter (in) sea level (mb) 1 hr 3 hr 6 hr
Max. Min.
17 04:53 SW 3 10.00 Fair CLR 73.9 70 88% 29.98 1013.7
17 03:53 SW 3 10.00 Fair CLR 75 70 84% 75 29.97 1013.5
17 02:53 SW 3 10.00 Fair CLR 75 70 84% 75 29.98 1013.7
17 01:53 Calm 10.00 Fair CLR 77 70 90 75.9 79% 79 29.98 1014.0
17 00:53 SE 7 10.00 Fair CLR 78.1 70 76% 80 29.99 1014.0
16 23:53 Calm 10.00 Fair CLR 78.1 70 76% 80 30.01 1014.9
16 22:53 S 5 10.00 Fair CLR 78.1 70 76% 80 30.02 1015.4
16 21:53 E 6 10.00 Thunderstorm in Vicinity BKN060 80.1 68 67% 83 30.04 1015.9
16 20:53 NW 6 10.00 Partly Cloudy SCT065 80.1 66.9 64% 82 30.01 1015.0
16 19:53 SW 12 10.00 Thunderstorm in Vicinity BKN065 90 69.1 97 90 50% 95 29.98 1013.9
16 18:53 SW 9 G 20 10.00 Thunderstorm in Vicinity CLR 91.9 66 43% 95 29.96 1013.1
16 17:53 SW 13 G 22 10.00 A Few Clouds FEW060 95 66.9 40% 99 29.95 1012.8
16 16:53 Calm 10.00 Fair CLR 93.9 69.1 44% 99 29.95 1012.9
16 15:53 NW 9 G 18 10.00 Mostly Cloudy BKN060 BKN080 91 70 50% 97 29.97 1013.5
16 14:53 SW 14 G 21 10.00 Thunderstorm in Vicinity FEW065 95 68 41% 100 29.97 1013.5
16 13:53 W 8 G 17 10.00 Fair CLR 95 69.1 95 75.9 43% 101 30 1014.3
16 12:53 Calm 10.00 Fair CLR 91 70 50% 97 30.02 1015.1
16 11:53 SW 10 10.00 Fair CLR 91 70 50% 97 30.03 1015.7
16 10:53 NW 7 10.00 Fair CLR 88 72 59% 95 30.05 1016.1
16 09:53 Vrbl 3 10.00 Fair CLR 82.9 72 70% 88 30.03 1015.5
16 08:53 W 8 10.00 Fair CLR 79 71.1 77% 82 30.02 1015.3
16 07:53 SW 3 10.00 Fair CLR 75.9 71.1 78.1 75.9 85% 76 30.02 1015.1
16 06:53 W 7 10.00 Fair CLR 75.9 71.1 85% 76 30.01 1014.8
16 05:53 W 7 10.00 Fair CLR 75.9 71.1 85% 76 30.01 1014.8
16 04:53 SW 7 10.00 Fair CLR 77 71.1 82% 79 30.01 1014.7
16 03:53 W 9 10.00 Fair CLR 77 70 79% 79 30 1014.4
16 02:53 SW 9 10.00 Fair CLR 78.1 70 76% 80 29.99 1014.1
16 01:53 W 8 10.00 Fair CLR 78.1 68 91.9 77 71% 80 29.99 1014.1
16 00:53 SW 8 10.00 Fair CLR 79 68 69% 81 30 1014.7
15 23:53 SW 8 10.00 Partly Cloudy SCT120 81 68 65% 84 30.02 1015.3
15 22:53 SW 8 G 17 10.00 Fair CLR 82 68 63% 85 30.02 1015.3
15 21:53 SW 6 10.00 A Few Clouds FEW110 88 66.9 50% 91 30 1014.6
15 20:53 W 3 10.00 A Few Clouds FEW120 90 66 45% 93 30 1014.5
15 19:53 W 7 10.00 Fair CLR 91.9 66 97 91.9 43% 95 29.99 1014.2
15 18:53 SW 9 10.00 Fair CLR 93 64 38% 95 29.98 1013.7
15 17:53 W 9 G 20 10.00 Fair CLR 93.9 64 37% 96 29.97 1013.3
15 16:53 W 8 G 18 10.00 Fair CLR 96.1 66 37% 100 29.98 1013.7
15 15:53 SW 7 10.00 Fair CLR 96.1 66 37% 100 29.99 1014.1
15 14:53 SW 9 G 17 10.00 Fair CLR 96.1 64.9 36% 99 30.02 1015.0
15 13:53 W 9 10.00 Fair CLR 95 69.1 95 79 43% 101 30.05 1016.0
15 12:53 Calm 10.00 Fair CLR 91.9 70 49% 98 30.07 1016.8
15 11:53 NW 3 10.00 Fair CLR 89.1 72 57% 96 30.08 1017.3
15 10:53 S 5 10.00 A Few Clouds FEW110 84.9 73.9 70% 92 30.09 1017.6
15 09:53 Calm 10.00 A Few Clouds FEW120 84 71.1 65% 89 30.09 1017.6
15 08:53 S 3 10.00 Fair CLR 82 72 72% 87 30.1 1017.8
15 07:53 E 5 10.00 Fair CLR 79 71.1 82 77 77% 82 30.08 1017.2
15 06:53 Calm 10.00 Fair CLR 77 71.1 82% 79 30.06 1016.7
15 05:53 NW 5 10.00 Fair CLR 79 70 74% 82 30.05 1016.1
15 04:53 W 3 10.00 Fair CLR 78.1 72 82% 80 30.04 1015.9
15 03:53 SW 3 10.00 Fair CLR 79 71.1 77% 82 30.04 1015.8
15 02:53 W 3 10.00 Fair CLR 80.1 71.1 74% 84 30.05 1016.1
15 01:53 W 3 10.00 Fair CLR 82 71.1 91 81 69% 86 30.06 1016.5
15 00:53 Calm 10.00 Fair CLR 82 72 72% 87 30.08 1017.3
14 23:53 W 5 10.00 Fair CLR 84 70 63% 88 30.09 1017.4
14 22:53 W 3 10.00 Fair CLR 84.9 69.1 59% 89 30.08 1017.3
14 21:53 W 3 10.00 Fair CLR 88 66.9 50% 91 30.08 1017.2
14 20:53 W 5 10.00 A Few Clouds FEW100 90 64 42% 91 30.08 1017.1
14 19:53 NW 5 10.00 Fair CLR 91 66.9 97 91 45% 94 30.08 1017.2
14 18:53 N 6 10.00 Fair CLR 93 68 44% 97 30.07 1016.8
14 17:53 Vrbl 3 10.00 Fair CLR 95 66.9 40% 99 30.07 1016.8
14 16:53 Vrbl 5 10.00 Partly Cloudy SCT070 96.1 66.9 39% 100 30.08 1017.2
14 15:53 SW 14 G 21 10.00 Mostly Cloudy BKN070 97 66 36% 101 30.09 1017.4
14 14:53 Vrbl 6 10.00 A Few Clouds FEW070 FEW080 96.1 64 35% 98 30.11 1018.3
14 13:53 Calm 10.00 A Few Clouds FEW070 93.9 64.9 96.1 79 38% 96 30.13 1018.8
14 12:53 Calm 10.00 Fair CLR 93.9 66 40% 97 30.15 1019.6
14 11:53 Vrbl 3 10.00 Fair CLR 91.9 66.9 44% 95 30.17 1020.2
14 10:53 SW 7 10.00 Fair CLR 90 69.1 50% 95 30.17 1020.2
14 09:53 Vrbl 3 10.00 Fair CLR 87.1 69.1 55% 91 30.18 1020.6
14 08:53 W 5 10.00 Fair CLR 82.9 70 65% 87 30.18 1020.6
14 07:53 NW 3 10.00 Fair CLR 79 70 80.1 75.9 74% 82 30.17 1020.4
14 06:53 Calm 10.00 Fair CLR 75.9 72 88% 76 30.16 1020.1
14 05:53 Calm 10.00 Fair CLR 75.9 72 88% 76 30.15 1019.9
Date Time (edt) Wind (mph) Vis. (mi.) Weather Sky Cond. Air Dwpt Max. Min. Relative Humidity Wind Chill (°F) Heat Index (°F) altimeter (in) sea level (mb) 1 hr 3 hr 6 hr
6 hour
Temperature (ºF) Pressure Precipitation (in)